Weather History for KIAB - March, 2013

Change the Weather History Date:

Saturday, March 9, 2013

  Actual Average Record
Temperature  
Mean Temperature 52 °F -  
Max Temperature 57 °F 51 °F 67 °F (2007)
Min Temperature 44 °F 29 °F 14 °F (1998)
Degree Days  
Heating Degree Days 14    
Growing Degree Days 2 (Base 50)    
Moisture  
Dew Point 47 °F    
Average Humidity 83    
Maximum Humidity 100    
Minimum Humidity 38    
Precipitation  
Precipitation 1.08 in - - ()
Sea Level Pressure  
Sea Level Pressure 29.71 in    
Wind  
Wind Speed 16 mph (SSE)    
Max Wind Speed 25 mph    
Max Gust Speed 32 mph    
Visibility 6 miles    
Events Rain , Thunderstorm    
Averages and records for this station are not official NWS values.
T = Trace of Precipitation, MM = Missing Value Source: NWS Daily Summary

Daily Weather History Graph

Daily Weather History Graph

Search for Another Location

Airport or City:

Trip Planner

Search our weather history database for the weather conditions in past years. The results will help you decide how hot, cold, wet, or windy it might be!

Date:

Astronomy

Mar. 09, 2013 Rise Set
Actual Time 6:48 AM CST 6:30 PM CST
Civil Twilight 6:22 AM CST 6:57 PM CST
Nautical Twilight 5:52 AM CST 7:27 PM CST
Astronomical Twilight 5:21 AM CST 7:57 PM CST
Moon 5:11 AM CST (3/9) 4:35 PM CST (3/9)
Length of Visible Light 12h 34m
Length of Day
11h 42m
Waning Crescent, 5% of the Moon is Illuminated
Mar 9
Waning Crescent
Mar 11
New
Mar 19
First Quarter
Mar 27
Full
Apr 2
Last Quarter

Hourly Weather History & Observations

Time (CST) Temp. Windchill Dew Point Humidity Pressure Visibility Wind Dir Wind Speed Gust Speed Precip Events Conditions
12:43 AM 53.6 °F - 48.2 °F 82% 29.90 in 10.0 mi SSE 23.0 mph 32.2 mph N/A   Overcast
12:58 AM 54.5 °F - 47.7 °F 78% 29.90 in 10.0 mi SSE 20.7 mph 31.1 mph N/A   Overcast
1:13 AM 53.6 °F - 48.2 °F 82% 29.89 in 10.0 mi SSE 25.3 mph 31.1 mph N/A Rain Light Rain
1:22 AM 53.6 °F - 50.0 °F 88% 29.89 in 10.0 mi SSE 21.9 mph - N/A   Overcast
1:58 AM 54.3 °F - 49.5 °F 84% 29.88 in 10.0 mi SSE 21.9 mph 28.8 mph 0.00 in   Overcast
2:39 AM 55.4 °F - 50.0 °F 82% 29.85 in 10.0 mi SSE 18.4 mph - N/A Rain Light Rain
2:54 AM 53.6 °F - 51.8 °F 94% 29.84 in 10.0 mi SSE 17.3 mph - N/A   Overcast
2:58 AM 54.1 °F - 51.4 °F 91% 29.84 in 10.0 mi SSE 17.3 mph - 0.00 in   Overcast
3:55 AM 53.6 °F - 50.0 °F 88% 29.81 in 10.0 mi SE 15.0 mph - N/A Rain Light Rain
3:58 AM 53.6 °F - 51.8 °F 94% 29.81 in 10.0 mi SE 15.0 mph - N/A Rain Light Rain
4:26 AM 53.6 °F - 51.8 °F 94% 29.80 in 10.0 mi SSE 19.6 mph - N/A   Overcast
4:32 AM 53.6 °F - 50.0 °F 88% 29.80 in 10.0 mi SSE 17.3 mph - N/A Rain Light Rain
4:58 AM 52.3 °F - 50.4 °F 93% 29.80 in 10.0 mi SE 17.3 mph - 0.01 in Rain Light Rain
5:15 AM 51.8 °F - 50.0 °F 94% 29.78 in 10.0 mi SE 16.1 mph - N/A   Overcast
5:29 AM 51.8 °F - 50.0 °F 94% 29.78 in 10.0 mi SE 16.1 mph - N/A Rain Light Rain
5:49 AM 51.8 °F - 50.0 °F 94% 29.77 in 9.0 mi SE 15.0 mph - N/A Rain Light Rain
5:54 AM 51.8 °F - 50.0 °F 94% 29.76 in 10.0 mi SE 16.1 mph - N/A Rain Light Rain
5:58 AM 51.4 °F - 50.5 °F 97% 29.77 in 10.0 mi SE 18.4 mph - 0.03 in Rain Light Rain
6:03 AM 51.8 °F - 50.0 °F 94% 29.75 in 10.0 mi SE 15.0 mph 25.3 mph N/A Rain Light Rain
6:08 AM 51.8 °F - 50.0 °F 94% 29.75 in 10.0 mi SE 18.4 mph 25.3 mph N/A Rain Light Rain
6:09 AM 51.8 °F - 50.0 °F 94% 29.75 in 10.0 mi SE 18.4 mph 25.3 mph N/A   Overcast
6:17 AM 51.8 °F - 50.0 °F 94% 29.75 in 10.0 mi SE 16.1 mph - N/A Rain Light Rain
6:22 AM 51.8 °F - 50.0 °F 94% 29.75 in 7.0 mi SE 17.3 mph - N/A Rain Light Rain
6:27 AM 51.8 °F - 50.0 °F 94% 29.76 in 6.0 mi SE 17.3 mph - N/A Rain Light Rain
6:32 AM 51.8 °F - 50.0 °F 94% 29.75 in 9.0 mi SE 16.1 mph 24.2 mph N/A Rain Light Rain
6:37 AM 51.8 °F - 51.8 °F 100% 29.75 in 10.0 mi SSE 16.1 mph 24.2 mph N/A Rain Light Rain
6:42 AM 51.8 °F - 51.8 °F 100% 29.75 in 10.0 mi SE 16.1 mph - N/A Rain Light Rain
6:58 AM 51.8 °F - 51.8 °F 100% 29.75 in 9.0 mi SSE 17.3 mph - 0.05 in Rain Light Rain
7:00 AM 51.8 °F - 51.8 °F 100% 29.75 in 10.0 mi SSE 17.3 mph - N/A   Mostly Cloudy
7:37 AM 53.6 °F - 53.6 °F 100% 29.75 in 10.0 mi SSE 16.1 mph 24.2 mph N/A Rain Light Rain
7:49 AM 53.6 °F - 53.6 °F 100% 29.76 in 10.0 mi SSE 15.0 mph - N/A   Overcast
7:53 AM 53.6 °F - 53.6 °F 100% 29.76 in 10.0 mi South 13.8 mph - N/A Rain Light Rain
7:58 AM 53.4 °F - 53.4 °F 100% 29.77 in 10.0 mi South 12.7 mph - 0.00 in Rain Light Rain
8:06 AM 53.6 °F - 53.6 °F 100% 29.76 in 7.0 mi South 16.1 mph - N/A Rain Light Rain
8:46 AM 53.6 °F - 53.6 °F 100% 29.76 in 3.0 mi South 19.6 mph - N/A Rain Rain
8:51 AM 53.6 °F - 53.6 °F 100% 29.76 in 2.5 mi South 21.9 mph - N/A Rain Light Rain
8:56 AM 53.6 °F - 53.6 °F 100% 29.76 in 1.5 mi South 20.7 mph - N/A Rain Heavy Rain
8:58 AM 52.9 °F - 52.9 °F 100% 29.77 in 1.5 mi South 20.7 mph - 0.10 in Rain Heavy Rain
9:08 AM 53.6 °F - 53.6 °F 100% 29.76 in 3.0 mi South 18.4 mph - N/A Rain Light Rain
9:13 AM 53.6 °F - 53.6 °F 100% 29.76 in 2.0 mi South 20.7 mph - N/A Rain Rain
9:23 AM 53.6 °F - 53.6 °F 100% 29.75 in 3.0 mi South 16.1 mph - N/A Rain Light Rain
9:38 AM 53.6 °F - 53.6 °F 100% 29.76 in 4.0 mi SW 13.8 mph - N/A Rain Light Rain
9:48 AM 53.6 °F - 53.6 °F 100% 29.76 in 1.8 mi South 18.4 mph - N/A Rain , Thunderstorm Rain
9:49 AM 53.6 °F - 53.6 °F 100% 29.75 in 1.8 mi South 18.4 mph - N/A Rain , Thunderstorm Rain
9:58 AM 52.9 °F - 52.9 °F 100% 29.75 in 1.8 mi South 16.1 mph - 0.16 in Rain Rain
10:03 AM 53.6 °F - 53.6 °F 100% 29.74 in 3.0 mi South 15.0 mph - N/A Rain Rain
10:08 AM 53.6 °F - 53.6 °F 100% 29.74 in 3.0 mi South 16.1 mph - N/A Rain Rain
10:17 AM 53.6 °F - 53.6 °F 100% 29.73 in 2.0 mi South 13.8 mph - N/A Rain , Thunderstorm Heavy Thunderstorms and Rain
10:22 AM 53.6 °F - 53.6 °F 100% 29.73 in 1.5 mi South 20.7 mph - N/A Rain , Thunderstorm Heavy Thunderstorms and Rain
10:27 AM 53.6 °F - 53.6 °F 100% 29.73 in 2.0 mi South 17.3 mph - N/A Rain , Thunderstorm Light Thunderstorms and Rain
10:32 AM 53.6 °F - 53.6 °F 100% 29.73 in 3.0 mi SSE 16.1 mph - N/A Rain Light Rain
10:37 AM 53.6 °F - 53.6 °F 100% 29.72 in 2.5 mi SSE 15.0 mph - N/A Rain Rain
10:42 AM 53.6 °F - 53.6 °F 100% 29.72 in 3.0 mi SSE 15.0 mph - N/A Rain Light Rain
10:58 AM 53.1 °F - 53.1 °F 100% 29.72 in 8.0 mi SSE 9.2 mph - 0.32 in Rain Light Rain
11:14 AM 53.6 °F - 53.6 °F 100% 29.71 in 10.0 mi SSE 9.2 mph - N/A   Overcast
11:19 AM 53.6 °F - 53.6 °F 100% 29.71 in 9.0 mi SSE 10.4 mph - N/A Rain Light Rain
11:34 AM 53.6 °F - 53.6 °F 100% 29.70 in 6.0 mi SSE 9.2 mph - N/A Rain Light Rain
11:39 AM 53.6 °F - 53.6 °F 100% 29.70 in 8.0 mi SSE 9.2 mph - N/A Rain Light Rain
11:44 AM 53.6 °F - 53.6 °F 100% 29.70 in 10.0 mi SSE 9.2 mph - N/A Rain Light Rain
11:58 AM 53.6 °F - 53.6 °F 100% 29.70 in 4.0 mi SE 6.9 mph - 0.01 in Rain Light Rain
12:08 PM 53.6 °F - 53.6 °F 100% 29.70 in 4.0 mi SE 6.9 mph - N/A Rain Light Rain
12:23 PM 53.6 °F - 53.6 °F 100% 29.69 in 2.5 mi SE 6.9 mph - N/A Rain Light Rain
12:28 PM 53.6 °F - 53.6 °F 100% 29.68 in 3.0 mi SE 6.9 mph - N/A Rain Light Rain
12:33 PM 53.6 °F - 53.6 °F 100% 29.68 in 2.5 mi SE 5.8 mph - N/A Rain Light Rain
12:48 PM 53.6 °F - 53.6 °F 100% 29.68 in 2.5 mi SE 3.5 mph - N/A Rain Light Rain
12:58 PM 53.6 °F - 53.6 °F 100% 29.68 in 1.5 mi WSW 2.3 mph - 0.05 in Rain Light Rain
1:03 PM 53.6 °F - 53.6 °F 100% 29.68 in 1.2 mi West 5.8 mph - N/A Rain Rain
1:08 PM 53.6 °F - 32.0 °F 44% 29.68 in 1.5 mi WNW 4.6 mph - N/A Rain Light Rain
1:13 PM 53.6 °F - 32.0 °F 44% 29.68 in 2.0 mi NW 2.3 mph - N/A Rain Light Rain
1:18 PM 53.6 °F - 32.0 °F 44% 29.67 in 3.0 mi NW 2.3 mph - N/A Rain Light Rain
1:23 PM 53.6 °F - 32.0 °F 44% 29.68 in 1.2 mi NW 8.1 mph - N/A Rain Rain
1:28 PM 53.6 °F - 32.0 °F 44% 29.67 in 0.8 mi NW 6.9 mph - N/A Rain Heavy Rain
1:33 PM 53.6 °F - 32.0 °F 44% 29.66 in 1.0 mi NNW 4.6 mph - N/A Rain , Thunderstorm Rain
1:38 PM 53.6 °F - 32.0 °F 44% 29.65 in 2.0 mi North 3.5 mph - N/A Rain , Thunderstorm Rain
1:48 PM 53.6 °F - 32.0 °F 44% 29.66 in 1.5 mi Calm Calm - N/A Rain Rain
1:53 PM 53.6 °F - 32.0 °F 44% 29.66 in 1.2 mi Calm Calm - N/A Rain Light Rain
1:58 PM 53.6 °F - 32.0 °F 44% 29.68 in 1.5 mi SSW 2.3 mph - 0.24 in Rain , Thunderstorm Light Rain
2:03 PM 53.6 °F - 32.0 °F 44% 29.67 in 0.5 mi Variable 2.3 mph - N/A Rain , Thunderstorm Rain
2:08 PM 53.6 °F - 32.0 °F 44% 29.64 in 0.5 mi ENE 3.5 mph - N/A Rain , Thunderstorm Light Rain
2:13 PM 53.6 °F - 32.0 °F 44% 29.64 in 1.0 mi East 3.5 mph - N/A Rain , Thunderstorm Light Rain
2:18 PM 55.4 °F - 32.0 °F 41% 29.65 in 2.0 mi East 4.6 mph - N/A Rain Light Rain
2:21 PM 55.4 °F - 32.0 °F 41% 29.64 in 5.0 mi ESE 3.5 mph - N/A   Haze
2:44 PM 55.4 °F - 32.0 °F 41% 29.63 in 10.0 mi ESE 2.3 mph - N/A Rain Light Rain
2:58 PM 55.4 °F - 32.0 °F 41% 29.63 in 5.0 mi SSE 5.8 mph - 0.08 in Rain Light Rain
3:23 PM 55.4 °F - 32.0 °F 41% 29.62 in 8.0 mi SE 10.4 mph - N/A Rain Light Rain
3:28 PM 55.4 °F - 32.0 °F 41% 29.61 in 10.0 mi SSE 10.4 mph - N/A Rain Light Rain
3:29 PM 55.4 °F - 32.0 °F 41% 29.61 in 10.0 mi SSE 10.4 mph - N/A   Scattered Clouds
3:47 PM 57.2 °F - 32.0 °F 38% 29.60 in 10.0 mi SE 11.5 mph - N/A   Mostly Cloudy
3:58 PM 57.2 °F - 32.0 °F 38% 29.60 in 10.0 mi SE 12.7 mph - 0.03 in   Mostly Cloudy
4:08 PM 57.2 °F - 32.0 °F 38% 29.59 in 10.0 mi SE 12.7 mph - N/A   Overcast
4:33 PM 57.2 °F - 32.0 °F 38% 29.59 in 10.0 mi SE 13.8 mph - N/A   Mostly Cloudy
4:58 PM 57.2 °F - 32.0 °F 38% 29.57 in 10.0 mi SSE 11.5 mph - N/A   Partly Cloudy
5:58 PM 57.2 °F - 32.0 °F 38% 29.60 in 10.0 mi SSE 20.7 mph - N/A   Mostly Cloudy
6:58 PM 55.2 °F - 55.2 °F 100% 29.58 in 10.0 mi SSE 16.1 mph - N/A   Clear
7:58 PM 54.1 °F - 54.1 °F 100% 29.58 in 10.0 mi SSE 11.5 mph - N/A   Clear
8:58 PM 53.8 °F - 53.8 °F 100% 29.60 in 10.0 mi SSW 11.5 mph - N/A   Clear
9:12 PM 53.6 °F - 53.6 °F 100% 29.62 in 10.0 mi South 12.7 mph - N/A   Partly Cloudy
9:58 PM 53.6 °F - 53.6 °F 100% 29.60 in 10.0 mi SSE 13.8 mph - N/A   Clear
10:58 PM 52.7 °F - 52.7 °F 100% 29.60 in 10.0 mi South 12.7 mph - N/A   Clear
11:42 PM 51.8 °F - 51.8 °F 100% 29.61 in 10.0 mi WSW 16.1 mph - N/A   Clear
11:53 PM 46.4 °F 39.8 °F 46.4 °F 100% 29.59 in 10.0 mi WNW 16.1 mph - N/A   Clear
11:58 PM 44.6 °F 37.2 °F 44.6 °F 100% 29.58 in 10.0 mi West 17.3 mph - N/A   Clear